Theta_e
321 322 322 322 323 324 324 325 325 325 325 325 325 325 324 324 325 325 325 325 326 326 326 326 325 325 326 326 325 323 319 309 306 306 303 306 314 320 321 322 323 322 318 316 315 312 305 305 304 305 306 305 303 304 304 304 304 305 298 294 293 294 292 294 293 293 295 293 295 296 297 294 293 297 296 297 295 294 293 291 292 293 291 292 292 293 292 292
321 321 322 322 322 323 324 324 325 325 325 325 325 324 325 325 325 325 325 325 326 327 326 326 325 325 324 327 325 322 315 309 305 304 306 316 320 321 322 320 321 321 320 310 307 306 304 304 304 304 303 302 304 301 304 301 304 299 296 296 292 294 294 296 295 295 293 292 294 295 296 294 294 295 297 292 293 293 291 290 291 289 290 291 291 291 291 291
321 321 321 321 322 323 323 324 325 324 325 325 325 325 324 325 324 325 326 325 327 326 326 326 324 323 324 323 325 316 310 306 304 301 305 321 320 320 321 320 321 318 315 308 308 308 304 304 305 304 302 300 301 299 303 301 302 300 296 294 294 296 296 295 295 293 294 294 293 293 295 295 295 295 297 293 293 294 293 290 289 288 287 288 289 289 289 289
320 321 321 321 321 322 322 324 324 324 325 325 325 325 325 325 324 325 326 326 327 327 326 324 321 320 320 322 322 323 313 309 298 302 307 319 318 319 319 319 319 317 314 311 309 307 308 308 305 304 302 301 301 302 299 300 298 300 298 293 294 296 295 293 295 293 294 295 293 294 295 294 295 295 295 293 292 293 290 292 291 288 287 287 288 288 288 288
319 320 320 320 321 321 322 323 324 325 325 325 325 325 324 325 324 325 326 325 327 327 327 326 325 323 318 319 320 317 310 300 297 304 307 316 318 318 317 319 320 315 313 309 310 308 306 303 302 302 302 299 299 301 297 299 299 300 296 296 295 295 293 293 293 293 293 295 294 293 292 291 296 295 291 291 289 286 288 291 291 289 288 287 286 287 287 286
319 319 320 320 320 321 322 323 324 325 324 325 325 326 324 325 325 325 324 325 324 325 325 326 324 323 322 318 317 314 308 291 302 303 316 314 317 320 317 318 318 317 317 307 304 304 303 303 303 300 299 298 295 295 297 299 300 295 295 296 295 295 292 293 293 293 294 293 292 291 293 295 293 290 290 288 286 287 289 289 289 288 288 287 287 286 285 285
319 319 319 319 319 321 322 323 324 324 324 324 325 325 324 324 323 323 324 324 323 323 321 323 323 321 320 321 313 306 300 298 302 305 313 315 314 316 316 317 318 312 307 304 303 302 302 301 302 301 299 299 296 297 296 298 300 297 291 294 292 294 292 293 293 293 293 292 291 293 295 293 291 288 288 285 287 288 288 288 288 287 287 287 285 285 285 285
319 319 318 319 319 321 321 322 323 324 324 325 325 326 324 323 323 323 324 325 325 324 322 319 321 320 320 318 314 301 298 296 302 307 311 314 308 308 313 315 310 307 304 303 302 300 301 300 298 302 297 295 295 297 298 296 296 294 292 294 292 293 293 293 294 293 293 293 293 293 291 291 290 288 287 284 285 286 286 287 286 286 286 285 285 284 285 285
319 319 318 319 319 320 321 322 323 323 324 325 325 326 325 323 322 323 324 324 325 324 322 320 313 320 317 315 307 300 295 301 305 306 306 305 305 306 307 305 308 304 302 303 302 301 300 298 299 299 295 295 298 296 298 295 292 295 293 293 293 292 293 293 293 293 292 293 293 290 289 291 290 289 284 285 285 286 286 285 285 285 284 284 284 284 284 284
319 318 319 319 320 320 321 322 322 322 323 324 325 325 325 323 322 322 324 324 324 324 323 321 319 314 316 309 305 296 298 305 306 306 306 306 305 305 304 305 306 304 301 301 302 302 299 299 300 301 301 298 299 295 298 294 291 297 293 293 293 292 292 293 291 292 292 292 291 289 289 289 291 290 282 285 285 285 285 284 284 283 283 283 283 283 283 283
319 318 319 319 320 320 321 322 321 321 323 325 325 324 323 322 323 324 324 324 323 322 321 319 315 311 305 304 298 293 304 304 306 306 306 306 303 302 302 303 305 303 302 300 300 302 302 302 302 302 301 295 299 294 294 293 297 294 293 294 294 292 292 293 292 291 292 290 291 290 288 290 290 287 283 284 285 285 283 283 283 283 283 283 283 283 283 283
319 318 318 319 320 320 321 321 320 321 322 323 323 322 321 321 322 324 324 323 321 319 318 319 313 309 306 300 296 296 304 305 307 306 306 306 302 303 303 303 304 303 302 299 299 301 302 303 302 300 294 300 294 296 293 295 294 294 294 293 292 292 290 292 290 290 291 289 291 291 289 285 285 282 284 285 285 284 283 282 282 282 282 282 282 282 282 283
318 318 318 319 320 320 321 320 320 321 322 322 321 320 320 321 321 322 322 319 319 318 318 316 318 311 309 297 297 303 305 307 306 305 305 307 306 305 305 304 304 304 302 300 299 302 305 304 302 298 299 299 296 292 294 296 295 296 293 291 291 291 290 291 291 291 290 289 291 290 280 282 282 284 285 285 284 284 282 281 282 282 282 282 282 282 282 283
318 318 319 320 319 320 320 319 319 320 320 321 319 319 319 319 320 320 321 322 323 322 321 316 317 308 304 296 301 303 305 308 306 304 303 306 305 304 305 304 304 303 304 301 301 302 302 304 303 301 302 296 294 298 295 293 295 290 291 292 287 286 285 291 290 290 288 291 291 290 280 283 282 284 285 285 284 283 281 281 281 281 281 281 282 281 281 282
318 318 319 319 320 320 320 318 318 318 319 319 318 318 319 318 319 319 319 321 319 318 321 320 309 311 300 298 303 304 312 309 303 302 304 303 302 302 302 303 302 302 302 301 300 301 302 303 301 297 295 299 298 297 292 292 293 291 288 284 288 284 286 289 292 290 285 289 291 288 281 282 282 283 286 285 285 283 281 281 281 281 281 281 281 281 282 282
317 318 319 319 318 318 319 318 317 317 316 316 316 318 319 318 318 318 317 316 316 316 321 315 310 306 301 296 300 311 305 300 299 303 305 304 302 300 303 301 302 302 302 300 302 302 301 301 296 296 295 296 294 292 292 291 288 290 286 283 282 284 284 286 289 290 290 287 289 287 281 284 282 284 286 286 284 282 281 280 280 280 280 281 281 281 282 282
317 318 319 318 318 318 319 319 318 318 318 317 316 315 314 316 313 316 315 317 313 317 309 305 308 308 297 302 306 301 298 301 303 303 304 305 303 302 303 301 300 300 301 302 302 302 301 299 298 297 296 291 291 291 288 284 282 284 286 283 284 281 283 282 288 290 289 288 283 288 284 283 283 284 285 286 284 282 280 280 280 280 280 281 281 281 281 282
317 318 319 317 319 318 319 319 319 319 318 318 320 319 312 316 315 315 312 319 316 313 312 311 307 305 297 303 294 297 302 301 300 302 303 304 304 303 301 300 300 300 300 299 301 299 300 295 297 289 290 289 288 286 282 278 279 280 281 281 281 284 284 283 282 286 288 288 285 285 284 283 282 283 284 284 284 282 280 280 280 280 280 280 281 281 281 281
318 318 318 318 318 318 318 318 318 318 319 320 319 318 318 317 325 310 308 308 311 305 302 299 301 296 291 295 300 300 301 301 301 302 300 302 302 303 302 303 302 300 298 296 295 298 298 295 295 288 284 284 284 285 283 283 284 282 283 282 282 281 282 282 285 288 287 284 284 284 281 283 281 282 283 283 283 282 281 280 280 280 280 280 281 281 282 282
318 318 317 318 318 318 318 317 316 317 317 320 324 323 316 310 307 302 305 305 300 299 299 301 300 300 299 298 297 301 304 301 299 300 300 302 302 301 301 301 301 300 297 293 296 295 298 287 284 283 284 285 286 286 285 286 286 286 285 284 282 282 283 285 286 288 289 284 283 284 283 282 280 281 282 282 282 281 280 279 279 280 280 280 281 282 282 282
318 317 317 317 318 318 318 316 316 315 313 325 316 311 306 305 302 294 298 300 301 302 300 299 299 297 295 297 299 299 296 298 300 298 299 303 303 299 297 299 298 295 295 295 295 298 296 286 284 286 286 285 286 287 287 287 288 285 284 282 281 283 280 284 284 287 288 284 282 284 283 281 280 280 281 282 281 279 279 279 279 278 280 280 282 282 282 282
317 317 316 317 318 318 318 317 316 314 311 322 315 308 307 307 310 312 307 295 300 302 300 299 300 298 299 299 300 297 299 296 297 297 300 301 300 297 297 297 294 291 295 297 293 293 287 283 285 287 288 288 287 287 287 287 286 285 283 282 281 281 283 285 286 287 287 285 282 284 281 279 279 280 281 281 280 280 281 280 279 279 279 280 281 282 282 282
316 316 317 317 318 318 319 316 315 313 322 314 312 308 308 311 311 310 314 301 297 300 301 300 298 297 297 300 299 301 295 292 291 295 295 299 297 296 297 295 293 293 293 294 291 289 285 286 287 289 288 288 288 287 286 286 288 284 283 280 278 282 279 277 283 285 286 284 282 283 280 278 279 279 279 280 279 280 280 280 280 280 280 280 281 282 281 281
315 315 316 317 317 319 317 317 314 318 317 316 314 310 309 311 312 311 310 300 297 298 301 299 299 298 296 294 298 297 295 293 293 292 299 297 294 296 295 293 293 292 290 291 290 287 285 287 290 289 290 288 286 287 284 283 283 285 283 281 279 280 280 280 280 284 285 286 285 282 280 277 278 276 276 278 280 279 279 280 279 281 282 283 283 282 282 280
314 315 316 317 316 316 316 316 313 312 315 314 310 312 311 311 311 311 309 298 301 298 300 302 301 297 297 301 301 298 295 296 294 295 298 296 293 296 293 294 295 289 290 291 291 289 286 288 289 289 288 288 287 284 283 283 281 283 284 282 281 282 281 282 283 281 280 280 283 281 273 274 277 276 275 277 277 277 278 278 279 281 281 282 281 280 281 281
314 315 316 316 316 314 315 311 311 314 320 313 312 311 312 311 313 311 307 297 289 295 302 295 300 296 301 297 299 297 297 293 295 296 298 296 297 293 294 293 293 287 291 290 288 287 287 289 289 287 287 287 286 284 284 284 281 281 281 284 283 282 282 282 281 280 276 273 279 284 273 270 279 274 276 276 276 276 277 278 280 280 280 281 280 280 280 280
313 315 315 315 314 313 314 311 317 315 312 308 313 311 311 311 313 317 302 293 289 294 296 300 301 297 304 297 299 297 291 292 299 298 297 298 295 299 295 291 295 294 292 291 290 285 290 289 288 288 287 285 284 282 284 283 281 280 284 284 283 282 281 281 281 280 278 282 284 282 278 272 272 275 277 277 275 275 276 278 278 279 280 280 280 280 279 279
314 315 315 314 313 314 314 314 313 312 314 314 310 310 310 310 313 314 297 285 282 300 294 297 297 304 300 298 299 294 292 296 294 294 298 299 298 298 295 290 288 289 292 292 284 287 287 287 286 285 285 284 282 283 285 285 281 282 284 285 282 283 282 283 281 279 280 278 276 279 280 272 271 275 277 277 274 276 276 277 277 279 279 279 280 279 279 279
314 314 315 314 312 313 324 319 317 315 310 309 307 310 312 315 312 302 293 283 293 294 304 297 302 299 298 301 296 296 295 296 291 295 300 300 298 296 291 290 291 290 293 292 286 286 288 287 288 287 284 281 284 286 286 285 281 285 286 286 285 285 284 283 280 279 278 277 272 275 278 270 270 276 276 277 276 274 275 276 277 278 279 279 278 278 278 278
313 313 315 312 317 320 316 317 311 311 309 305 310 309 311 310 304 294 286 281 295 288 297 299 297 292 297 297 294 295 292 293 295 296 298 293 295 298 293 292 293 291 289 292 290 288 287 291 291 288 284 285 285 286 287 285 286 288 286 284 283 283 282 282 281 279 277 273 274 277 278 274 268 275 275 274 273 274 274 276 277 278 278 278 278 278 277 276
311 312 313 314 321 314 316 309 311 310 306 307 309 311 312 304 294 289 282 288 296 295 298 296 291 297 292 292 291 294 294 293 293 294 292 295 293 295 295 291 297 290 289 288 285 289 288 288 288 289 291 288 288 286 289 288 287 286 282 281 281 280 282 280 280 277 272 270 276 277 276 275 267 272 276 276 276 276 275 275 276 276 276 277 277 277 276 276
309 309 311 313 310 315 316 311 310 309 310 307 312 312 302 292 292 287 285 296 289 291 291 291 294 290 292 291 291 289 288 292 292 291 289 290 287 286 286 284 284 285 286 284 284 286 284 284 285 288 289 286 285 286 285 286 286 284 282 280 275 273 274 271 275 270 270 269 275 277 276 273 272 275 276 275 276 276 277 277 276 276 276 276 276 276 276 275
310 308 308 309 312 312 308 308 307 309 307 310 312 305 296 290 282 288 287 289 286 292 291 292 291 290 289 290 289 289 290 287 292 291 291 291 289 287 288 287 287 285 281 284 283 284 284 284 286 286 286 289 286 281 280 281 283 281 278 276 273 269 267 266 270 272 273 275 278 275 278 272 276 277 278 277 277 278 278 278 278 277 276 275 275 275 275 275
309 311 308 305 307 308 308 307 307 308 313 309 307 300 292 286 285 285 286 288 288 292 291 290 291 291 291 288 287 288 288 288 290 289 292 288 288 285 287 288 287 285 286 285 281 280 280 281 283 285 282 288 285 282 281 280 281 281 282 279 275 273 267 264 268 264 267 270 273 278 272 269 269 272 278 278 277 279 279 279 278 277 276 276 275 275 274 274
306 312 311 312 312 308 309 307 308 308 312 308 302 295 287 286 287 287 288 288 289 291 291 290 290 290 290 289 289 289 288 286 289 289 288 288 284 284 283 283 286 286 286 283 282 282 282 282 284 287 286 286 283 285 285 283 282 283 282 283 277 273 277 269 271 270 269 268 270 273 271 275 273 278 279 279 279 278 278 278 277 276 276 275 274 273 273 273
311 310 315 306 307 308 310 309 306 307 310 303 298 291 290 287 287 287 287 291 291 290 291 291 292 290 288 288 287 287 290 287 288 287 286 286 285 284 285 285 283 285 282 282 281 280 282 282 284 286 286 284 283 285 284 286 274 280 281 275 276 281 278 273 275 276 275 272 270 276 273 275 280 277 277 278 278 278 278 278 277 275 275 274 273 273 272 272
312 313 304 307 306 307 307 310 307 309 308 302 294 290 287 286 287 289 291 290 290 291 290 287 287 287 286 286 287 286 287 288 286 286 285 286 284 284 284 284 286 285 285 283 282 283 278 280 287 284 282 284 285 285 285 285 285 282 276 277 282 282 278 274 268 270 269 266 269 272 269 269 271 267 278 277 275 276 276 275 275 275 274 272 272 272 272 272
311 306 305 305 305 307 308 308 308 311 306 299 289 288 288 286 289 291 291 290 290 288 289 289 286 288 286 286 286 284 287 286 288 288 285 286 283 286 284 284 285 285 285 286 283 282 281 279 284 284 284 284 285 284 282 283 286 280 278 283 276 270 271 275 272 264 263 264 265 269 271 271 272 270 274 273 272 273 274 275 274 273 273 272 272 271 272 272
310 309 303 304 307 307 310 308 312 306 302 292 290 288 288 289 289 290 290 290 290 289 288 287 287 286 286 286 285 286 284 285 285 286 284 285 283 285 284 285 284 286 285 286 283 283 284 277 281 283 284 284 283 282 279 280 282 283 283 280 280 278 274 270 270 271 272 265 263 265 268 267 275 273 273 273 274 274 274 274 273 273 272 271 271 271 271 271
307 303 300 308 308 309 307 308 309 303 300 292 290 287 290 289 291 289 290 289 289 289 288 287 288 286 285 286 286 285 287 286 285 285 286 285 283 285 284 285 283 285 286 285 282 285 282 283 277 284 285 285 280 282 280 280 278 279 279 277 277 277 278 275 276 270 268 265 265 264 263 269 274 277 274 275 275 275 274 273 273 273 272 272 271 271 270 271
306 304 302 307 308 309 309 307 300 294 291 289 292 289 290 289 291 290 290 289 291 292 288 289 288 287 287 285 285 287 285 286 285 285 285 285 284 282 285 285 284 283 284 283 282 283 281 282 278 281 283 283 281 282 282 282 281 279 278 276 276 273 271 269 268 273 268 266 264 263 261 268 275 280 277 277 277 276 275 274 273 273 272 271 271 271 271 271
303 295 302 306 306 308 307 298 290 294 292 290 288 291 289 292 292 290 289 290 290 289 290 290 289 289 287 286 288 286 285 285 285 284 285 284 284 284 284 288 287 286 282 281 281 283 281 281 280 278 281 281 280 282 283 283 282 280 279 277 277 277 275 272 266 269 272 271 270 268 264 267 278 280 280 279 278 276 275 274 273 272 272 271 271 271 271 271
304 300 304 306 307 311 304 293 293 291 289 288 291 291 292 290 290 290 290 290 290 291 290 290 289 288 287 288 288 286 286 285 285 284 285 286 284 284 287 286 286 285 283 282 281 281 282 279 278 280 284 280 281 281 282 281 281 278 278 279 278 274 274 273 272 272 268 269 267 267 264 269 279 281 280 279 278 277 276 275 273 272 272 271 271 271 271 270
302 300 302 308 308 306 302 292 290 288 288 289 290 288 291 291 290 289 289 289 290 289 289 288 288 289 288 289 288 286 287 283 285 284 284 285 284 285 286 287 284 284 283 281 280 283 279 282 279 278 280 280 277 276 277 277 277 278 279 277 277 276 275 273 271 270 267 268 268 266 261 267 277 281 280 279 277 275 274 274 273 271 271 271 270 270 271 270
299 301 300 302 305 304 299 300 294 289 287 288 288 287 288 288 289 290 290 290 290 289 289 288 288 290 288 289 287 286 285 284 283 283 282 284 284 286 286 287 284 283 286 285 283 284 280 281 279 275 273 272 272 274 276 277 279 281 277 275 275 274 272 271 270 271 267 271 271 267 267 274 278 279 278 278 276 274 274 274 273 273 271 270 270 270 270 270
300 292 300 300 301 299 295 295 298 292 287 287 286 288 289 287 289 291 291 289 289 289 289 289 288 288 288 287 286 285 285 286 283 283 282 283 283 285 286 286 285 285 283 281 281 282 280 281 280 280 278 276 278 280 283 283 280 276 279 278 273 274 274 273 273 271 270 270 268 270 270 272 274 275 275 276 275 273 272 272 271 271 271 271 270 270 270 269
302 296 295 294 297 297 293 295 294 294 289 292 288 288 286 289 288 288 291 288 289 289 288 289 288 286 286 287 287 286 287 285 285 282 281 282 283 283 284 286 286 286 281 283 283 281 280 279 281 280 279 280 281 280 282 281 278 279 278 278 276 273 272 270 270 270 274 269 267 274 275 270 272 274 275 275 274 273 273 272 271 271 270 270 270 270 270 269
298 296 296 294 296 293 293 291 295 294 293 293 287 289 287 287 288 285 288 288 289 288 288 287 288 289 289 288 287 284 285 285 284 282 281 281 283 282 282 284 284 284 283 284 283 281 280 278 278 274 277 279 280 279 280 280 279 279 279 278 277 275 272 269 270 273 272 268 267 272 273 271 272 274 276 275 274 273 272 272 272 272 271 270 269 269 268 268
299 294 294 293 296 288 291 294 296 294 293 292 287 289 287 288 287 289 288 287 287 287 288 285 287 288 289 288 287 285 284 282 283 282 279 282 281 282 282 282 284 284 283 282 281 280 279 280 279 275 275 277 278 279 280 279 279 279 278 278 278 277 274 272 272 273 273 271 272 273 272 272 275 275 276 275 276 274 273 273 273 271 270 269 268 268 268 267
293 297 292 295 293 289 289 291 295 295 289 290 288 289 289 289 288 287 288 289 285 286 288 287 288 289 289 288 288 284 285 287 284 283 284 282 281 281 283 284 283 282 283 281 281 280 279 278 277 277 275 276 280 281 281 280 279 276 278 278 278 277 276 275 274 274 274 273 273 273 272 271 276 278 277 277 276 275 273 272 271 270 269 269 268 267 267 266
301 298 301 296 291 289 289 290 292 295 291 290 291 287 289 290 289 290 288 289 289 288 287 288 290 289 288 288 288 287 289 287 286 285 285 284 283 286 283 283 285 281 281 279 280 278 277 279 278 276 275 277 282 279 280 280 279 276 275 276 276 275 273 273 272 275 273 271 272 272 270 271 277 278 277 276 275 273 271 271 270 270 269 268 267 267 266 266
299 298 300 304 292 287 289 288 290 291 290 293 293 290 289 290 292 291 286 289 287 289 290 289 290 289 288 287 287 288 287 288 287 287 286 287 286 286 286 285 285 284 282 280 279 279 279 279 278 278 274 276 283 282 280 279 275 272 274 276 277 277 276 276 277 277 276 276 272 270 271 277 277 277 275 274 274 272 271 270 270 269 269 268 267 266 266 266
Wind_Speed
10 10 9 10 11 10 8 9 9 8 8 8 8 8 7 6 4 4 5 5 5 4 3 3 3 3 5 5 6 9 9 5 16 16 19 10 8 13 13 13 14 15 13 9 9 7 4 1 2 1 3 1 4 0 3 3 5 5 3 5 4 7 7 10 10 10 11 12 14 16 11 12 14 9 4 2 5 8 7 10 10 11 13 12 12 11 10 9
10 10 10 11 10 9 10 10 9 8 7 7 7 7 5 3 5 5 5 5 4 4 4 3 4 4 3 5 5 6 7 4 16 20 16 10 16 18 15 14 14 14 15 6 11 9 7 5 5 4 3 2 2 4 5 3 6 5 5 4 5 7 7 8 9 10 11 12 13 13 12 9 9 10 5 8 2 7 7 8 8 11 12 12 11 10 9 8
11 11 10 10 8 10 9 8 7 7 6 6 7 7 6 5 5 6 5 4 4 4 5 4 4 4 5 4 4 3 4 3 17 21 16 20 19 18 16 15 14 13 8 7 8 7 6 6 4 6 4 1 6 5 3 6 7 5 5 5 7 7 6 11 10 10 11 11 13 14 11 12 7 8 7 7 10 7 4 5 5 8 11 11 10 10 10 11
11 10 9 8 8 8 7 7 7 6 5 8 7 7 6 5 5 4 5 5 5 4 4 4 4 2 3 4 2 4 4 7 15 12 16 18 20 17 16 15 13 11 7 4 5 5 3 4 3 5 2 5 3 3 5 6 5 4 3 6 7 9 6 11 10 11 11 10 11 12 11 10 10 6 8 12 10 7 10 12 9 7 10 11 11 11 11 12
10 9 8 8 10 9 7 6 6 6 6 7 6 5 5 5 5 5 5 4 4 4 4 5 5 7 4 3 5 6 4 4 8 12 17 17 18 17 15 13 12 9 7 6 6 4 4 5 2 2 3 5 6 3 8 5 4 3 7 7 8 8 5 9 10 11 9 9 10 11 10 11 6 6 13 13 10 9 9 10 11 13 11 11 11 12 12 13
10 9 7 9 9 7 6 6 6 5 7 6 6 5 5 5 5 6 4 4 4 4 2 3 5 7 6 3 5 7 6 4 8 13 16 18 16 14 12 11 12 9 9 6 7 7 10 6 2 4 4 5 9 6 7 5 5 1 8 8 8 7 7 7 10 9 8 11 11 10 9 10 8 8 13 16 13 11 13 14 14 13 12 12 12 11 12 13
7 7 7 6 5 6 7 6 5 6 6 6 7 6 6 6 6 5 4 4 5 6 4 2 4 6 7 11 9 17 16 7 9 14 15 15 16 13 9 9 9 7 11 12 12 9 11 9 8 6 4 4 9 6 7 4 4 8 7 7 8 6 7 7 8 8 10 8 9 9 11 9 9 6 12 15 10 10 12 13 14 13 13 13 13 13 13 13
6 5 3 4 6 7 6 5 5 6 6 7 7 6 6 6 5 5 5 6 7 7 6 2 3 5 3 3 3 11 14 10 14 14 14 14 13 12 11 5 10 7 12 13 11 10 6 12 9 5 7 7 4 5 5 2 13 8 7 6 5 3 5 7 6 10 12 7 6 14 16 8 11 10 11 13 10 10 11 12 13 12 12 12 13 12 12 12
3 3 4 5 7 7 6 6 6 7 7 7 6 5 4 5 6 5 5 6 6 6 5 4 2 4 5 3 5 9 11 10 11 14 15 14 14 9 12 8 10 8 10 11 12 12 9 10 8 10 7 6 5 5 7 8 6 8 5 1 4 4 1 9 9 16 17 4 10 16 15 6 13 17 16 9 10 10 12 12 12 12 13 13 13 13 12 13
6 6 6 7 7 7 7 7 7 6 6 5 4 4 4 5 5 5 5 5 6 8 10 7 3 6 4 5 5 11 7 10 11 11 13 11 11 10 14 11 9 9 11 12 13 13 13 7 7 5 2 7 6 6 2 11 5 3 2 2 5 4 2 8 13 14 14 5 15 18 15 7 4 5 6 8 9 9 11 12 11 11 12 11 11 11 11 12
7 7 7 8 8 8 8 6 6 5 4 3 3 3 4 5 5 3 3 4 6 6 7 10 12 11 14 14 14 10 5 7 10 10 11 10 11 13 10 11 10 8 9 11 12 11 9 11 6 3 2 5 1 8 7 4 2 2 4 5 5 3 4 10 10 15 10 7 19 16 19 7 9 12 8 7 7 8 11 11 10 10 10 10 11 10 11 11
8 8 9 8 8 7 7 6 6 5 3 3 3 5 6 6 4 3 2 3 5 5 6 6 9 3 11 19 15 8 8 6 9 10 9 8 6 4 7 9 10 10 8 11 11 9 7 6 9 12 5 6 2 7 6 1 2 5 2 4 7 1 4 12 9 12 15 9 18 16 13 12 11 7 8 8 7 7 11 11 10 10 9 9 9 9 9 10
9 9 7 7 7 6 6 6 5 4 3 3 5 7 7 6 5 4 2 3 6 5 7 7 7 0 4 16 8 5 5 5 9 10 9 8 2 1 5 9 10 10 11 11 9 7 6 7 11 15 8 3 5 1 3 4 8 4 1 4 5 7 1 13 5 12 13 11 17 14 9 6 8 9 7 8 7 8 8 8 7 7 7 7 7 7 8 9
8 7 5 5 6 6 6 5 4 5 6 5 8 9 7 6 5 3 4 5 1 4 7 11 6 10 11 9 6 1 2 3 9 13 14 12 6 4 8 8 8 8 7 8 4 4 6 7 9 8 8 10 4 2 3 4 4 11 5 5 4 8 5 10 7 17 13 11 15 15 7 5 8 7 7 7 8 7 6 7 7 6 6 5 6 5 6 7
7 6 5 6 6 6 5 7 9 8 7 6 8 8 7 6 6 6 2 3 3 4 5 5 2 3 7 6 4 3 4 5 13 14 10 13 12 4 10 3 9 9 8 6 4 3 4 3 8 12 10 3 6 4 2 2 5 9 3 2 6 8 8 11 12 15 14 12 16 14 5 5 5 6 6 7 7 6 6 6 6 5 4 4 4 5 4 5
6 5 6 6 5 4 3 7 10 11 10 10 8 6 4 4 4 3 3 3 4 2 4 1 5 5 9 7 6 9 4 16 15 11 9 8 9 9 7 2 1 2 3 5 2 1 2 7 12 10 10 8 14 8 3 4 7 8 9 8 11 12 11 9 12 12 12 15 13 10 8 4 6 6 7 7 7 6 6 6 5 5 4 3 3 3 4 4
5 5 6 5 4 4 3 4 5 5 7 9 10 8 5 4 1 1 4 5 4 2 3 4 3 1 5 2 5 6 12 9 10 10 12 7 7 9 8 3 2 3 3 5 5 3 7 6 2 2 11 14 10 10 1 2 9 8 9 6 8 11 13 10 14 11 10 14 13 8 8 7 8 5 7 8 7 7 6 5 5 3 2 2 1 2 5 6
5 5 5 4 4 3 3 3 2 3 2 2 2 4 6 8 4 3 2 1 1 2 2 4 3 1 10 10 7 11 10 6 10 11 11 9 4 10 8 6 2 3 6 4 10 8 7 6 8 8 10 12 14 13 13 10 8 10 10 9 10 11 10 12 13 15 10 10 11 9 9 4 7 7 7 8 7 7 7 5 4 2 1 1 2 4 7 8
5 5 5 4 3 3 2 2 2 1 2 2 1 0 5 6 2 15 12 8 3 2 2 9 8 3 5 8 7 8 7 6 7 15 16 14 8 8 6 2 5 2 2 5 9 10 6 3 5 12 14 13 13 13 7 6 7 8 9 8 10 11 10 11 15 13 11 11 10 11 9 6 7 7 6 6 6 7 7 6 4 3 1 1 5 7 10 10
6 5 5 4 3 2 1 1 2 3 2 2 2 2 3 2 3 5 9 14 13 10 7 4 3 7 6 9 10 12 4 6 9 16 17 13 10 7 6 5 2 9 7 4 5 9 5 13 13 9 6 10 10 10 9 8 6 7 6 9 10 12 12 15 14 11 12 11 8 12 13 5 7 5 6 5 5 5 6 5 4 2 1 4 6 11 14 13
6 5 4 4 4 3 3 3 3 2 2 3 1 3 3 2 0 4 5 10 7 8 9 8 10 9 6 4 8 13 6 2 10 16 16 16 3 6 10 6 6 7 8 2 3 3 7 14 9 8 6 5 4 7 12 9 4 5 6 9 9 8 12 19 14 13 12 10 12 9 15 8 6 6 5 5 5 4 4 3 1 2 4 5 11 14 15 14
5 4 4 4 4 3 1 4 2 1 2 2 1 1 2 3 2 3 2 6 5 5 4 4 2 7 2 3 3 3 4 5 9 19 15 17 11 3 7 7 9 10 9 5 4 2 11 11 5 6 5 5 2 7 14 12 6 4 5 9 9 11 16 8 7 12 12 10 9 11 16 6 7 7 6 5 3 3 3 1 2 3 5 9 12 14 15 15
5 4 4 4 3 1 1 1 3 2 1 2 4 5 4 2 5 2 2 10 6 2 5 8 10 9 9 2 8 8 8 14 10 16 17 16 6 8 7 6 9 7 9 12 7 6 7 8 7 4 5 7 6 6 15 14 5 3 7 9 10 13 15 15 13 16 17 11 8 8 18 7 8 7 7 4 3 3 3 2 1 1 9 11 13 15 15 15
6 5 4 4 3 2 2 3 5 1 5 5 6 4 2 3 4 5 3 3 4 3 4 3 5 8 8 8 5 7 12 8 8 16 14 11 9 5 3 7 6 7 8 10 14 11 8 4 4 6 5 8 10 7 14 11 9 5 7 10 11 15 15 12 15 16 18 6 4 9 7 6 7 7 6 5 4 3 4 2 4 5 8 11 12 15 14 15
6 5 5 4 2 1 1 2 2 3 1 5 4 2 2 3 3 4 2 3 2 4 2 3 2 6 5 5 4 2 4 6 11 7 9 11 9 4 4 2 3 6 3 5 5 10 8 4 3 5 8 10 10 7 10 11 7 2 6 12 14 16 16 16 15 15 9 4 5 12 10 10 6 7 8 5 4 5 2 5 5 9 12 12 14 16 16 16
7 6 6 5 3 1 2 1 2 1 0 3 2 2 1 3 3 2 3 2 2 5 5 6 3 5 3 8 8 4 4 5 3 8 8 7 2 2 4 4 5 6 1 2 6 5 5 2 3 7 6 11 10 7 8 9 7 6 10 15 15 15 14 14 14 10 7 9 6 6 14 13 8 9 5 4 5 2 4 4 9 10 12 14 16 14 16 18
7 7 8 6 2 1 1 1 3 1 1 3 2 2 1 3 2 3 3 1 1 4 4 3 3 6 3 8 10 5 1 5 5 9 11 9 5 2 4 3 3 3 2 1 4 5 3 6 6 5 7 9 9 7 8 8 6 5 14 16 16 13 13 13 11 7 8 8 7 10 11 14 15 4 3 4 5 4 5 5 7 12 15 16 14 17 20 20
8 6 6 8 3 2 3 5 4 3 2 2 2 1 2 2 2 3 2 2 1 2 3 5 3 3 3 5 14 9 3 8 2 10 10 9 7 2 3 5 7 5 1 4 4 2 4 4 5 6 8 9 10 8 7 7 5 7 14 16 17 15 15 12 9 7 8 8 6 10 16 11 9 4 3 3 6 7 7 11 10 14 16 15 18 19 19 19
9 7 5 5 7 7 5 2 0 2 2 2 2 2 1 1 3 3 1 2 1 1 3 3 2 1 5 3 10 7 3 9 5 5 11 3 9 3 3 3 2 2 9 8 3 3 1 3 3 3 5 9 10 9 4 6 8 8 16 14 13 13 11 7 6 5 9 6 9 14 16 12 11 2 3 9 7 11 6 7 11 14 16 18 20 22 22 20
11 8 4 4 4 2 2 3 5 1 1 2 2 2 2 3 3 2 1 3 1 1 3 3 1 6 8 3 3 8 10 6 1 8 4 5 7 2 3 5 2 1 3 9 8 4 3 3 3 1 6 8 11 8 5 5 8 13 14 14 15 6 6 6 4 6 5 6 7 16 15 12 12 9 7 4 3 2 6 8 10 14 19 22 23 23 20 21
12 12 8 3 1 1 2 2 3 1 1 1 2 4 3 3 2 1 2 1 2 3 3 4 3 2 7 7 2 6 3 5 8 9 5 2 6 8 3 3 4 2 1 3 4 6 5 3 3 3 0 7 10 10 9 5 9 13 11 13 11 4 8 3 2 3 7 8 9 18 11 16 12 13 5 6 5 2 3 10 14 20 24 23 22 19 20 19
13 15 14 8 0 2 2 2 3 1 1 1 2 3 3 2 1 2 0 0 2 3 2 2 2 2 2 1 5 6 5 1 6 7 8 8 11 14 14 6 7 4 1 7 3 7 3 4 3 5 3 6 11 8 3 7 6 11 12 13 13 9 8 7 8 8 6 7 14 18 12 11 7 6 3 7 1 2 6 9 14 19 21 21 21 22 19 17
7 5 12 9 1 5 3 2 1 1 1 2 2 2 3 1 1 2 2 2 1 3 2 1 3 4 2 4 6 5 1 5 6 5 4 5 4 7 9 9 8 4 4 5 5 7 3 3 1 5 1 7 9 9 11 4 10 12 15 14 13 13 11 9 10 7 7 7 11 15 10 9 11 6 4 2 1 3 7 11 15 15 20 21 22 19 17 16
8 4 6 3 7 4 2 1 1 2 2 2 3 2 0 2 0 3 1 1 2 1 0 1 2 3 3 3 3 5 1 2 5 5 5 2 5 4 4 9 12 9 2 3 7 5 5 1 3 6 2 7 8 6 5 6 7 9 7 11 7 4 3 9 8 11 13 15 19 10 9 7 16 7 3 4 2 3 7 8 10 17 18 18 19 17 16 16
3 4 4 3 3 4 3 1 1 2 2 3 3 2 1 0 1 1 2 2 2 2 1 2 2 3 3 3 1 1 2 1 3 3 8 5 5 5 6 7 11 9 4 3 3 3 4 4 4 3 4 6 6 2 2 8 5 6 5 5 6 5 4 6 8 11 12 15 13 5 5 9 12 4 7 4 5 4 6 8 14 17 19 18 17 16 15 14
3 1 0 4 4 4 3 1 1 2 3 3 3 2 2 1 1 1 1 2 2 1 2 2 4 3 1 3 2 1 3 2 2 2 3 6 4 3 2 4 7 9 5 3 2 4 6 2 5 6 3 7 4 3 2 7 6 9 4 8 8 8 6 8 9 8 14 12 8 6 11 10 9 10 8 5 8 10 9 16 22 21 18 18 16 16 14 14
1 1 3 3 5 6 4 1 1 3 3 4 2 1 2 1 3 2 3 1 1 2 3 2 2 2 0 0 1 3 1 2 2 4 2 2 3 4 3 1 2 5 5 4 1 1 3 9 3 6 3 4 3 5 6 6 2 5 4 7 13 8 6 3 9 8 7 9 9 9 12 15 13 8 8 15 14 15 16 17 18 20 19 19 16 15 15 15
2 2 3 4 6 5 3 1 2 4 3 1 1 4 1 0 0 3 2 1 1 2 2 3 1 3 1 1 1 2 5 2 5 3 2 1 1 1 1 2 3 3 4 3 3 1 2 4 4 3 4 6 4 5 4 2 6 6 2 2 7 4 5 7 4 8 14 11 12 4 11 12 9 12 13 18 14 19 20 22 22 22 21 19 18 16 15 15
1 2 1 4 5 4 3 3 4 3 2 1 2 2 2 3 2 2 3 3 3 3 1 2 1 1 1 0 1 2 4 2 3 2 2 3 2 1 1 3 1 1 1 5 3 2 3 2 1 4 2 6 4 4 4 4 7 7 8 1 2 4 3 7 1 4 5 12 12 12 15 9 9 10 10 16 15 16 19 22 23 22 20 18 17 15 15 14
2 2 2 1 5 3 3 3 3 0 1 0 1 2 1 3 3 2 1 2 1 2 1 0 1 1 0 2 2 0 2 2 3 2 2 3 1 1 0 1 4 2 3 3 4 4 1 1 4 1 8 4 2 2 5 4 4 1 2 4 2 2 7 7 3 0 4 10 10 14 16 8 10 10 6 12 16 17 19 21 20 19 19 18 16 14 14 12
1 2 2 2 5 3 5 1 6 3 2 2 5 5 1 3 4 2 1 2 2 1 2 2 1 0 1 2 2 1 0 0 1 0 2 3 2 1 2 2 1 2 1 2 4 0 2 4 5 11 7 4 4 5 4 4 3 2 3 2 2 3 5 7 6 5 3 2 9 11 14 14 13 9 6 16 16 16 18 19 20 20 18 17 14 14 13 12
2 2 1 4 3 2 3 3 3 2 0 2 2 0 4 1 4 3 1 4 4 2 1 1 3 2 1 0 2 2 1 0 1 1 1 2 3 2 2 3 1 3 2 1 2 4 2 4 5 7 7 5 6 6 5 5 4 1 3 2 3 2 2 3 9 6 7 6 9 11 13 12 9 5 11 14 14 15 18 19 19 18 17 16 14 14 13 12
2 1 2 4 3 1 1 4 2 2 3 2 1 5 3 2 2 2 3 3 2 1 1 1 2 1 1 1 2 1 2 0 1 1 1 1 2 4 4 1 1 2 3 1 3 2 1 3 5 9 6 10 9 5 8 7 3 5 5 3 2 2 2 3 6 6 8 10 7 7 8 10 5 8 13 14 14 15 14 16 18 16 14 14 15 14 13 13
1 1 2 3 1 2 2 1 2 2 3 2 3 5 2 1 2 5 2 1 1 2 1 2 2 2 2 1 1 1 1 1 1 2 2 1 1 3 4 3 2 1 2 2 2 3 3 2 5 8 5 3 5 1 2 2 1 6 2 4 3 4 4 4 3 3 5 7 8 9 14 9 8 11 15 16 15 16 17 16 15 17 15 14 14 12 12 12
3 1 2 3 3 1 2 3 4 5 3 4 6 5 5 2 3 3 2 3 1 2 2 2 2 2 2 1 1 1 1 2 1 2 2 1 1 3 3 3 2 2 3 2 3 3 3 5 5 7 10 12 12 10 9 5 5 6 6 6 6 8 5 2 4 5 8 5 10 9 13 15 15 17 18 16 16 17 16 15 15 14 14 14 13 12 12 13
1 1 2 2 3 4 4 2 3 7 8 5 3 3 1 4 2 1 2 4 2 3 3 4 1 1 3 3 3 4 3 2 2 0 1 2 2 2 2 3 4 1 3 1 3 3 2 2 4 2 3 7 9 10 11 10 11 9 9 5 7 5 7 5 4 7 10 11 12 15 17 22 25 23 20 19 15 17 19 17 16 15 15 14 13 12 12 13
1 1 0 1 2 5 5 3 4 5 5 7 2 6 4 3 5 3 2 1 3 0 2 1 3 4 3 3 3 3 3 3 3 1 2 2 1 1 3 2 1 3 4 2 1 2 2 4 2 6 7 10 13 17 16 12 14 15 12 7 7 8 9 7 7 9 7 9 13 6 12 17 22 23 21 19 17 17 17 17 17 16 15 14 13 14 14 13
2 1 1 2 2 1 1 1 2 4 6 1 2 2 6 8 5 2 2 3 3 2 2 2 3 5 3 2 2 2 4 4 3 2 1 1 1 3 3 4 4 6 5 2 1 2 2 3 1 2 9 10 15 17 17 14 13 13 14 12 9 8 11 11 12 14 7 7 14 20 20 19 22 20 19 16 17 17 17 17 15 15 15 14 13 14 14 14
3 3 2 2 1 2 3 3 4 6 6 3 3 3 6 7 6 3 1 5 2 4 4 2 5 7 4 2 3 1 3 1 3 2 3 3 3 2 2 2 5 4 4 3 1 1 2 4 2 0 12 16 15 15 14 13 12 12 11 14 12 12 13 14 14 13 13 16 20 21 22 23 20 19 15 16 15 15 14 14 14 15 14 14 13 13 14 14
2 3 2 2 6 5 2 3 4 4 3 2 1 5 5 7 6 3 2 3 3 3 2 4 4 5 4 4 3 2 1 3 2 2 2 4 1 3 2 2 2 3 5 2 1 1 2 1 5 3 5 12 13 8 7 10 10 13 13 12 12 11 12 14 13 14 15 18 19 20 19 19 13 10 15 15 14 13 13 14 15 13 12 13 13 13 13 14
2 3 2 6 3 1 0 1 2 2 3 2 2 2 3 6 5 6 3 3 2 3 6 4 6 5 2 2 3 4 3 2 2 2 2 4 2 2 2 0 2 3 3 2 2 1 1 1 2 2 7 10 3 4 6 9 10 10 13 13 12 11 10 10 10 11 11 13 14 15 15 13 11 13 14 15 15 16 16 16 14 12 12 12 12 13 13 14
1 1 1 0 2 0 1 2 2 1 2 2 2 5 3 7 6 7 2 1 1 3 4 0 6 3 3 3 4 2 5 4 4 3 2 3 2 1 2 2 1 1 3 3 1 2 2 3 5 4 8 8 7 9 16 12 6 7 9 12 16 14 14 9 11 12 14 13 12 11 12 12 15 15 17 16 16 16 15 14 14 13 11 10 12 13 13 13
Wind_Direction
19 12 9 17 18 13 15 11 5 351 11 35 44 40 34 25 2 359 1 6 341 353 355 349 331 323 312 319 307 304 322 49 52 46 45 30 317 330 329 323 325 318 309 297 275 237 242 49 348 12 247 232 37 35 33 54 346 284 309 357 325 10 10 9 360 350 338 319 336 328 357 345 323 349 71 227 98 97 93 82 82 81 79 84 91 94 99 110
14 10 9 16 14 12 13 4 348 350 9 27 39 40 30 1 13 7 6 358 348 337 346 344 313 296 287 283 295 319 319 354 50 43 52 353 1 350 343 333 331 330 312 333 8 354 353 30 15 306 287 111 325 58 277 74 316 350 339 294 11 20 40 16 9 2 349 340 326 330 334 347 349 344 41 319 279 134 114 88 101 97 93 90 88 92 97 98
10 7 12 11 7 21 5 342 341 353 360 30 33 27 23 12 13 11 357 353 344 355 350 339 322 298 279 268 292 9 317 50 36 29 5 6 350 347 339 334 325 321 319 342 2 348 3 354 345 308 28 351 20 38 357 40 317 64 316 348 53 13 20 39 18 7 350 334 330 332 338 321 24 341 334 294 327 274 342 81 108 105 102 90 90 89 83 80
5 2 9 9 9 13 353 339 349 352 4 31 30 25 16 12 14 359 4 6 354 350 348 4 347 332 310 296 258 293 262 272 41 357 3 355 344 336 334 323 318 317 309 306 325 348 319 271 302 335 41 40 56 21 28 14 323 26 317 13 6 8 332 27 17 6 348 347 331 336 335 332 6 358 353 339 314 23 39 17 343 104 95 93 90 86 81 75
357 357 360 7 12 356 343 345 351 352 18 30 24 19 19 12 7 13 11 355 346 337 352 324 324 317 29 251 221 244 294 244 31 346 358 348 335 327 325 318 308 316 320 303 266 275 286 337 26 48 323 70 15 134 37 17 29 329 51 45 16 1 38 21 18 17 347 339 332 343 346 342 321 43 28 19 22 15 359 6 64 82 87 93 90 81 77 73
350 345 355 13 4 330 345 353 351 359 24 17 25 23 25 14 16 23 26 6 8 347 331 295 295 298 307 273 228 234 247 62 333 349 349 337 325 317 319 312 307 297 295 332 8 17 8 27 221 52 55 48 27 28 22 10 344 68 73 55 37 33 41 15 19 10 354 350 351 347 344 306 338 55 41 56 51 45 40 61 70 76 80 83 82 81 78 75
333 334 2 360 337 344 359 346 351 14 13 15 20 21 32 38 41 32 17 14 21 14 10 283 299 302 321 328 84 68 70 87 353 341 349 330 317 316 315 293 308 343 18 22 22 27 18 37 51 42 49 93 44 33 26 21 9 45 54 34 54 46 39 23 18 16 3 344 352 337 303 300 351 17 57 61 62 62 66 71 76 80 81 79 79 75 74 72
336 330 332 340 356 1 353 340 4 13 9 10 9 5 26 33 26 13 356 357 354 358 357 6 293 305 335 257 216 64 50 10 344 343 340 333 330 335 328 250 354 5 28 26 8 20 18 34 36 327 61 38 353 26 12 75 44 42 40 37 80 44 40 13 15 13 3 1 3 339 323 31 59 73 68 64 69 77 84 87 87 89 87 83 81 78 76 71
306 318 357 4 7 357 343 351 8 12 9 7 359 336 16 24 16 1 356 354 343 345 24 15 275 264 217 277 274 56 30 348 342 337 348 343 342 350 8 28 347 27 40 33 27 30 37 24 38 14 57 42 15 64 14 321 82 29 30 26 52 38 16 2 14 8 346 355 4 333 324 46 99 95 67 69 78 90 93 89 86 84 81 77 73 72 68 65
343 356 6 14 3 349 337 349 5 7 2 355 328 342 2 27 15 7 3 358 355 355 350 358 346 237 240 242 85 66 26 330 350 349 355 350 357 22 28 10 0 37 46 42 42 38 38 27 22 26 356 92 55 50 348 43 71 302 360 95 7 53 8 27 31 4 334 75 360 335 319 28 78 292 89 75 91 101 95 89 87 85 82 79 76 73 67 64
347 1 11 13 2 348 340 344 355 357 344 317 330 8 30 29 27 28 29 5 1 10 12 355 349 14 57 58 64 64 1 323 356 359 357 4 27 32 12 1 3 40 61 58 50 32 37 40 3 243 218 40 108 72 59 74 256 4 32 215 1 74 62 18 24 8 346 26 358 340 312 83 61 66 85 109 118 109 99 97 92 87 85 83 79 72 68 63
354 7 14 7 355 334 335 342 351 345 345 9 27 45 41 35 40 46 55 26 20 13 17 4 352 331 69 62 53 39 335 3 350 3 3 4 38 14 16 19 25 32 65 72 54 37 11 340 20 47 20 296 97 124 82 212 318 7 309 232 357 225 204 23 13 9 354 5 348 344 316 73 50 70 102 118 124 112 101 99 93 90 88 85 78 74 71 64
1 6 5 358 344 334 342 347 341 344 19 44 65 58 46 45 47 32 301 72 33 19 10 8 302 21 270 58 37 22 348 357 3 7 9 2 220 273 41 39 43 46 60 81 67 35 7 12 35 54 12 358 55 8 87 237 16 359 44 285 332 349 22 12 22 10 1 12 345 352 339 67 79 101 109 127 126 121 115 104 98 95 92 85 82 78 69 59
359 354 351 352 345 351 355 358 25 57 67 71 69 58 49 50 39 34 48 55 321 7 358 350 329 61 76 90 102 36 336 345 9 16 9 353 5 132 55 53 62 65 65 76 66 352 13 360 31 84 57 41 67 186 202 129 13 12 350 267 10 341 10 6 18 4 359 8 349 348 315 62 91 111 119 132 142 137 116 106 106 102 98 94 83 78 69 61
355 344 356 5 355 358 13 53 68 72 73 70 65 62 57 49 41 40 353 167 10 295 301 295 321 270 52 98 183 134 253 249 21 16 11 358 357 25 30 74 66 64 64 67 76 39 360 340 42 45 34 72 169 205 152 72 1 14 354 326 13 360 348 349 21 7 359 359 351 343 319 26 85 111 138 142 151 134 119 118 114 108 100 95 88 72 62 46
358 358 12 10 5 355 15 64 68 69 73 66 64 72 77 58 42 37 79 74 230 294 251 26 355 33 96 81 48 174 5 20 9 1 12 1 355 11 349 81 230 80 116 80 77 86 114 64 58 45 34 40 31 2 243 15 355 12 13 349 349 350 345 330 17 350 357 346 343 334 313 314 99 91 140 144 149 136 129 126 123 114 108 89 67 51 16 359
360 14 19 9 1 344 13 36 41 29 49 65 76 71 95 134 97 66 65 27 15 300 42 41 326 31 53 38 233 6 360 12 360 3 9 19 350 359 6 136 184 142 83 94 46 220 10 33 178 86 41 43 22 7 319 338 352 8 11 354 345 341 333 333 334 354 350 350 322 316 306 69 86 97 128 142 147 143 134 135 133 127 97 75 46 3 346 345
11 22 21 10 349 332 359 13 356 7 24 55 39 331 26 13 102 178 40 158 19 41 79 76 35 75 113 42 15 339 340 331 356 354 15 7 359 348 6 32 11 252 218 197 21 31 354 49 22 61 43 35 27 23 35 5 341 336 345 344 338 333 335 325 336 340 0 338 313 322 329 81 92 96 125 137 151 152 146 148 150 141 128 339 316 338 336 332
8 23 20 1 324 319 337 326 324 342 51 83 118 30 274 286 344 54 30 3 76 72 107 358 2 44 47 348 341 332 329 329 274 11 8 8 336 315 300 308 6 298 198 53 31 22 17 78 44 39 29 22 25 28 28 341 325 327 325 331 324 324 330 337 328 329 343 330 321 336 328 341 106 101 117 139 157 156 150 146 144 170 240 297 322 319 319 321
14 17 13 332 320 299 313 230 53 24 186 135 193 235 210 193 108 46 17 46 56 63 65 5 57 108 88 19 355 334 256 282 7 17 8 356 321 309 18 326 121 59 43 61 31 35 353 52 36 29 21 20 31 17 5 341 314 305 318 333 329 322 318 326 321 337 337 326 318 329 322 21 98 101 119 139 152 152 152 159 162 185 262 312 317 310 311 310
10 12 353 332 300 289 235 79 62 31 293 265 205 272 297 51 348 83 55 69 62 45 65 59 55 54 57 342 356 360 19 3 33 18 12 326 273 269 9 355 24 48 45 338 23 90 42 60 42 31 360 340 354 358 351 335 321 338 345 340 325 331 328 320 315 338 333 330 312 320 323 93 96 107 115 131 162 164 173 160 156 139 309 297 314 316 318 321
3 8 343 312 297 246 177 61 57 41 283 246 246 96 60 28 344 34 169 95 62 14 65 81 77 67 148 27 30 342 286 2 13 12 4 350 19 1 355 43 42 49 7 171 191 141 46 54 45 17 326 306 275 343 360 341 323 14 359 341 325 335 324 299 315 335 322 312 301 322 319 116 98 108 116 129 157 152 136 250 148 346 308 309 318 319 318 319
6 355 337 316 304 269 116 136 52 248 270 111 96 104 73 13 333 332 291 116 91 332 51 52 51 42 39 109 19 299 40 34 350 5 1 345 37 49 337 50 52 50 43 29 46 44 55 44 23 316 313 323 17 20 3 350 339 14 358 353 345 329 338 328 331 328 322 307 301 329 306 109 113 110 111 94 114 137 110 107 320 207 318 316 324 327 328 327
3 357 334 326 300 232 189 173 225 289 45 50 71 57 32 342 313 295 253 46 108 71 61 49 42 33 50 7 4 2 55 37 9 354 0 359 23 299 314 9 52 55 55 57 69 73 79 38 347 306 294 1 356 15 10 359 347 86 21 354 328 331 324 311 314 321 312 80 350 328 307 150 150 135 126 125 135 154 149 264 254 301 307 318 323 325 328 327
5 353 349 336 314 266 151 305 41 68 278 82 63 72 13 325 299 360 276 143 152 94 179 165 265 66 15 225 350 286 96 88 42 13 355 11 354 298 71 205 290 42 37 307 122 89 76 44 306 308 15 14 5 10 24 343 334 9 66 351 316 315 316 313 318 325 323 345 61 339 335 344 134 149 151 137 169 161 170 266 275 322 324 328 327 326 325 324
8 3 359 2 356 70 5 277 110 207 249 67 70 86 34 312 324 302 279 267 93 10 186 33 221 47 252 3 342 20 276 59 16 24 17 8 254 344 234 74 12 38 14 61 72 74 62 68 4 349 2 7 9 17 27 345 325 337 347 328 315 313 313 315 318 329 332 340 342 341 358 324 340 149 129 177 171 164 247 256 300 333 331 327 327 324 323 324
10 4 7 4 36 136 225 153 81 160 169 143 81 9 341 295 323 264 260 220 157 352 15 21 245 37 331 347 345 177 267 30 323 33 17 26 9 191 353 52 182 92 185 16 218 68 355 36 12 17 6 7 4 2 15 350 321 345 329 316 314 314 313 313 312 301 305 337 291 18 16 323 322 93 115 168 166 201 248 316 329 322 323 323 321 325 327 326
16 6 7 27 43 197 328 116 155 183 15 52 6 351 299 291 266 262 268 268 107 307 353 32 28 313 353 339 28 57 66 300 275 19 12 348 324 237 77 65 73 5 22 235 17 67 33 10 28 17 6 13 1 333 341 334 333 327 322 317 305 307 298 300 303 312 325 308 321 357 359 323 317 98 194 195 209 286 21 354 336 324 323 321 321 327 328 332
13 15 354 16 33 48 44 69 339 121 47 16 347 301 276 239 251 282 271 267 63 39 208 82 183 141 24 298 42 41 54 7 34 339 334 220 43 293 56 52 75 37 37 31 64 107 23 36 25 324 8 5 327 322 327 331 327 327 306 300 295 293 287 266 282 302 319 289 339 359 351 330 316 317 216 190 252 340 358 358 334 323 325 326 329 331 331 330
21 20 5 335 324 202 65 79 50 35 356 1 284 275 263 240 230 221 207 258 76 86 356 331 309 325 310 253 75 27 35 15 130 321 342 33 3 84 76 350 221 260 83 64 85 65 106 128 32 269 31 348 310 305 286 249 299 295 326 330 323 304 308 307 208 328 313 353 344 356 341 337 307 335 15 1 359 356 333 319 321 319 326 329 331 330 332 332
24 30 15 301 353 40 304 120 86 61 36 289 266 261 248 227 292 292 238 61 287 68 221 49 20 265 21 35 65 13 97 22 0 348 25 349 19 32 42 180 263 270 152 129 109 147 150 159 213 137 174 324 304 290 209 232 270 337 344 339 323 156 321 189 0 169 336 331 358 343 345 310 301 329 13 88 104 356 339 318 319 330 331 330 330 329 333 331
40 42 38 52 345 300 324 111 77 59 330 299 268 230 249 245 175 270 88 37 207 32 18 17 91 6 39 206 67 8 358 12 21 12 15 15 26 28 20 33 340 349 89 27 5 145 176 177 49 141 207 286 340 339 79 207 300 358 347 357 7 351 0 349 360 350 346 325 334 341 335 309 316 347 73 137 115 12 353 339 331 327 330 328 329 334 332 331
16 33 54 43 285 65 59 41 340 340 302 263 251 242 256 281 237 88 135 333 79 338 118 240 4 335 348 247 47 1 340 22 337 32 300 23 48 95 71 41 348 340 325 12 331 343 119 54 331 158 195 11 4 9 1 18 3 5 11 1 9 360 359 341 336 308 292 295 333 324 336 303 312 341 24 291 25 332 353 330 330 330 329 333 332 330 330 331
31 335 67 35 65 62 69 34 7 273 261 216 251 196 323 251 120 1 23 25 43 141 79 333 355 251 326 41 26 343 179 123 339 4 352 26 37 42 45 38 18 351 308 340 4 349 336 138 121 342 0 5 46 52 15 328 338 21 17 14 359 23 357 314 337 335 317 313 314 304 7 326 331 5 85 110 74 318 325 337 334 336 337 335 331 331 330 330
8 49 121 154 133 70 59 58 273 259 279 247 210 237 230 237 107 164 156 124 134 137 144 102 246 224 134 120 128 87 325 117 15 18 30 25 33 36 356 359 2 359 276 285 71 250 323 258 71 32 95 35 64 60 317 313 231 24 349 8 1 15 313 267 293 289 306 307 309 352 334 339 327 59 131 154 215 313 328 332 344 343 339 337 333 335 334 334
283 108 292 52 17 13 23 26 316 255 282 239 223 217 256 29 125 7 78 347 113 179 122 202 249 235 53 133 152 346 147 300 105 238 96 64 49 27 341 14 3 356 353 9 344 345 312 66 157 118 72 46 60 155 25 334 15 331 344 10 345 318 271 278 281 278 295 293 281 340 312 326 323 153 171 211 311 333 322 331 343 340 340 338 336 336 337 335
261 245 50 7 23 346 343 351 319 266 252 256 247 224 53 99 4 16 38 333 38 359 192 232 73 331 46 35 56 28 69 240 200 263 92 176 132 48 14 80 347 347 17 325 117 143 322 300 145 160 154 88 79 107 88 69 10 346 7 8 298 197 214 306 321 307 312 306 304 323 321 319 336 333 360 337 331 328 333 343 342 339 340 339 339 339 337 335
143 69 132 46 340 328 319 311 289 239 249 208 59 67 223 189 121 27 47 222 202 207 245 281 88 306 105 292 66 349 348 287 33 276 69 229 53 44 37 341 111 8 323 331 301 82 297 300 135 156 101 131 164 141 120 355 2 57 341 293 355 5 331 328 306 337 336 330 316 308 331 306 329 322 339 334 332 330 334 337 340 340 340 339 338 338 337 334
141 218 71 15 347 331 313 290 260 247 200 151 134 167 87 51 60 44 39 349 296 283 262 41 6 88 335 314 355 202 342 26 336 36 278 50 293 81 54 330 115 84 310 321 274 1 240 295 286 152 301 143 175 224 350 103 124 115 184 123 39 288 334 333 207 284 322 308 331 304 330 306 351 336 343 327 341 332 332 339 339 338 338 337 336 337 337 337
212 233 77 38 334 308 317 286 240 200 254 245 131 57 106 105 101 97 73 320 102 295 73 88 354 109 353 35 319 303 59 328 341 26 298 32 329 37 57 131 320 355 326 280 321 312 292 208 287 48 183 157 227 209 345 348 344 14 307 359 39 341 194 194 214 183 328 322 308 304 312 299 331 339 323 326 342 343 344 336 333 333 336 336 335 335 334 338
287 280 99 358 343 314 281 60 49 46 76 67 52 103 84 116 151 107 112 247 257 219 343 34 41 122 118 169 199 228 224 295 292 353 2 131 339 186 112 348 52 305 110 244 248 302 278 228 289 305 320 301 67 68 81 107 101 24 318 26 337 20 4 337 323 102 54 281 297 314 293 285 293 325 339 341 338 343 339 334 330 331 334 334 333 333 331 331
233 235 88 7 350 348 272 71 48 332 78 130 102 132 133 269 125 116 188 175 259 99 247 79 60 72 124 41 20 148 231 249 99 314 101 316 86 338 101 320 287 330 280 356 5 57 325 307 284 296 298 316 83 67 61 101 102 227 288 200 160 131 344 333 313 307 297 280 277 249 271 275 287 318 344 339 340 343 338 333 328 329 333 334 331 330 330 332
298 30 115 336 48 303 144 80 59 54 64 66 225 70 80 122 100 171 201 192 176 5 159 76 41 122 50 321 189 184 258 189 283 333 63 248 88 51 114 123 274 253 259 188 192 177 28 249 282 274 259 101 97 77 112 104 134 187 184 148 136 331 178 273 282 323 289 297 297 303 259 270 308 345 338 337 340 343 337 333 328 328 332 332 332 329 332 332
72 60 92 89 191 317 256 212 143 103 105 114 80 94 342 42 147 164 194 105 318 154 133 123 151 352 96 306 190 160 126 245 153 242 193 200 140 106 140 191 209 202 272 41 312 99 276 129 307 303 321 191 171 107 200 311 330 237 217 134 119 135 165 214 225 180 270 241 250 303 283 273 292 325 332 332 339 338 336 332 330 330 332 333 330 329 330 330
114 116 63 58 47 320 273 23 132 135 149 140 138 139 149 96 18 348 335 123 359 53 176 124 45 118 114 173 105 127 119 316 204 112 15 301 86 149 136 207 190 273 39 23 343 326 244 307 332 355 349 343 342 337 342 331 289 315 121 149 157 156 165 235 268 294 287 299 314 288 276 273 298 314 324 330 338 333 333 331 331 333 332 330 328 326 330 330
204 259 130 106 25 80 77 287 96 141 142 150 123 159 193 119 165 179 317 87 351 101 28 106 116 242 132 182 169 197 179 164 248 157 187 202 159 150 123 161 198 319 110 8 328 274 280 305 268 281 288 292 292 291 296 313 302 289 281 217 173 169 189 191 264 258 299 311 293 264 261 296 308 316 326 333 337 333 330 333 333 333 333 332 328 326 326 327
349 277 5 212 134 62 72 66 112 132 151 183 141 163 160 137 135 137 316 166 173 173 114 284 161 189 164 216 214 192 177 188 196 304 218 249 124 107 144 206 202 172 150 234 209 255 259 274 231 249 254 263 278 280 286 294 285 283 285 287 165 167 167 186 229 256 287 304 285 245 304 304 299 312 322 329 333 331 328 329 331 331 331 330 326 323 322 323
254 91 87 33 286 105 169 108 101 94 64 31 92 117 151 147 179 154 113 28 116 243 204 139 217 240 205 219 173 213 181 212 182 219 125 273 257 185 202 173 222 147 189 196 141 298 327 287 74 36 254 259 268 269 273 271 263 269 271 268 258 188 173 196 224 238 259 235 264 289 300 298 296 307 319 326 333 325 324 324 323 324 324 324 322 321 322 326
17 91 69 301 262 52 5 62 116 115 110 111 111 171 164 174 170 120 152 135 203 187 244 213 204 197 191 166 229 257 176 219 216 119 208 158 206 173 223 177 201 159 210 217 147 34 288 255 51 97 293 288 275 266 265 262 265 269 267 265 263 251 217 213 236 243 241 248 258 278 287 286 294 305 317 325 324 319 318 317 319 322 323 321 320 321 323 327
181 193 133 62 86 81 72 120 136 159 141 212 164 190 180 185 164 137 243 189 170 179 143 262 172 152 168 181 222 237 287 317 341 286 180 129 199 226 264 274 116 168 203 236 154 136 281 348 79 299 285 287 284 267 250 255 269 272 270 266 259 249 253 239 243 252 257 263 267 278 289 286 283 302 318 316 316 315 314 317 319 321 322 320 320 322 323 325
49 344 122 145 112 67 112 151 185 209 168 204 218 147 199 192 176 163 123 1 327 152 178 210 138 125 104 212 235 261 22 8 14 12 192 199 289 123 235 60 126 160 181 168 205 117 253 262 146 235 308 305 324 216 291 276 273 277 278 267 253 239 235 236 235 236 247 264 278 285 283 285 308 319 311 311 315 318 317 318 321 322 321 321 322 322 322 322
69 127 264 288 101 342 218 69 267 249 208 53 32 151 196 187 133 147 113 131 165 341 5 46 152 178 161 198 237 82 51 58 67 51 6 5 16 323 7 10 282 233 191 177 52 234 209 306 311 337 314 266 323 324 315 317 302 259 240 234 229 223 222 231 236 246 246 263 278 272 266 291 304 312 311 311 314 314 316 317 321 320 315 320 321 318 318 318